This demonstration page uses our WeatherBlox Daily Observations layout. Learn more.

Left ArrowRight Arrow

36.17497, -115.13722

Hourly Observations for July 20, 2017

Temp ( °F °C ) Dew Point ( °F °C ) Humidity (%) Winds ( mph kmh ) Pressure ( in mb ) Visibility ( mi km ) Precip ( " mm )
12:53 am 00:53 Mostly Clear 84 28.9 61 16.1 46 46 ESE 5 7 29.93 1014 10 16 N/A
1:53 am 01:53 Clear 83 28.3 62 16.7 49 49 ESE 3 6 29.93 1014 10 16 N/A
2:53 am 02:53 Mostly Clear 83 28.3 62 16.7 49 49 ESE 3 6 29.92 1013 10 16 N/A
3:53 am 03:53 Mostly Cloudy 83 28.3 63 17.2 51 51 ESE 3 6 29.93 1014 10 16 N/A
4:53 am 04:53 Mostly Cloudy 83 28.3 63 17.2 51 51 ESE 5 7 29.94 1014 10 16 N/A
5:53 am 05:53 Sunny 82 27.8 64 17.8 55 55 E 6 9 29.97 1015 10 16 0.00 0.00
6:53 am 06:53 Sunny 83 28.3 64 17.8 53 53 ESE 3 6 29.98 1015 10 16 N/A
7:53 am 07:53 Sunny 84 28.9 65 18.3 53 53 E 5 7 29.98 1015 10 16 N/A
8:53 am 08:53 Sunny 85 29.4 64 17.8 50 50 ESE 6 9 29.99 1016 10 16 N/A
9:53 am 09:53 Sunny 86 30 65 18.3 49 49 SE 6 9 29.99 1016 10 16 N/A
10:53 am 10:53 Sunny 88 31.1 64 17.8 45 45 SE 9 15 29.99 1016 10 16 N/A
11:53 am 11:53 Sunny 91 32.8 62 16.7 38 38 SSE 10 17 29.97 1015 10 16 N/A
12:53 pm 12:53 Sunny 93 33.9 60 15.6 33 33 ESE 12 19 29.95 1014 10 16 N/A
1:53 pm 13:53 Sunny 96 35.6 55 12.8 25 25 SSE 14 22 29.92 1013 10 16 N/A
2:53 pm 14:53 Sunny 96 35.6 54 12.2 24 24 SSE 14 22 29.89 1012 10 16 N/A
3:19 pm 15:19 Sunny with Nearby Thunderstorms 97 36.1 53 11.7 23 23 S 10 17 29.71 1006 10 16 N/A
3:33 pm 15:33 Sunny with Thunderstorms 97 36.1 49 9.4 20 20 SSW 12 19 29.71 1006 10 16 N/A
3:53 pm 15:53 Sunny with Nearby Thunderstorms 97 36.1 47 8.3 18 18 S 8 13 29.85 1011 10 16 N/A
4:08 pm 16:08 Sunny with Thunderstorms 98 36.7 47 8.3 17 17 S 10 17 29.68 1005 10 16 N/A
4:23 pm 16:23 Sunny with Nearby Thunderstorms 98 36.7 47 8.3 17 17 S 9 15 29.68 1005 10 16 N/A
4:34 pm 16:34 Sunny 98 36.7 47 8.3 17 17 S 10 17 29.68 1005 10 16 N/A
4:53 pm 16:53 Sunny 98 36.7 48 8.9 18 18 S 15 24 29.82 1010 10 16 N/A
5:53 pm 17:53 Sunny 99 37.2 50 10 19 19 S 13 20 29.80 1009 10 16 N/A
6:53 pm 18:53 Sunny 98 36.7 49 9.4 19 19 S 13 20 29.80 1009 10 16 N/A
7:53 pm 19:53 Sunny 97 36.1 49 9.4 20 20 SSE 9 15 29.81 1009 10 16 N/A
8:48 pm 20:48 Clear with Thunderstorms 93 34 50 10 23 23 SSE 6 9 29.68 1005 10 16 N/A
8:53 pm 20:53 Clear with Thunderstorms 94 34.4 50 10 22 22 S 5 7 29.82 1010 10 16 N/A
9:17 pm 21:17 Clear with Nearby Thunderstorms 95 35 51 10.6 23 23 S 3 6 29.71 1006 10 16 N/A
9:29 pm 21:29 Clear 95 35 51 10.6 23 23 S 5 7 29.71 1006 10 16 N/A
9:53 pm 21:53 Clear 94 34.4 52 11.1 24 24 N N/A 29.83 1010 10 16 N/A
10:53 pm 22:53 Clear 91 32.8 52 11.1 26 26 N N/A 29.83 1010 10 16 N/A
11:53 pm 23:53 Clear 91 32.8 53 11.7 27 27 SSE 7 11 29.83 1010 10 16 N/A

Powered by AerisWeather